When you browse on this site, cookies collect data to enhance your experience and personalize the content and advertising you see.
Visit our Privacy Policy to learn more. By continuing to use the site, you agree to this use of cookies and data.

Meteo pe oră la Alibunar

Astăzi, 7 August, Vineri

Timp Temperatura Precipitaţii Vânt Presiune Umiditate
00:00 +22°C° 0 mm 3 m/s 754 mmHg 58%
01:00 +22°C° 0 mm 3 m/s 754 mmHg 54%
02:00 +22°C° 0 mm 3 m/s 754 mmHg 53%
03:00 +23°C° 0 mm 4 m/s 754 mmHg 51%
04:00 +23°C° 0 mm 4 m/s 754 mmHg 50%
05:00 +25°C° 0 mm 3 m/s 754 mmHg 49%
06:00 +26°C° 0 mm 3 m/s 754 mmHg 47%
07:00 +28°C° 0 mm 2 m/s 755 mmHg 46%
08:00 +29°C° 0 mm 2 m/s 755 mmHg 43%
09:00 +31°C° 0 mm 3 m/s 755 mmHg 39%
10:00 +34°C° 0 mm 4 m/s 755 mmHg 35%
11:00 +34°C° 0 mm 4 m/s 754 mmHg 36%
12:00 +33°C° 0 mm 4 m/s 754 mmHg 37%
13:00 +33°C° 0 mm 4 m/s 754 mmHg 38%
14:00 +33°C° 0.1 mm 4 m/s 754 mmHg 39%
15:00 +33°C° 0.1 mm 4 m/s 753 mmHg 40%
16:00 +33°C° 0.1 mm 4 m/s 753 mmHg 41%
17:00 +30°C° 0.1 mm 4 m/s 753 mmHg 45%
18:00 +29°C° 0.1 mm 4 m/s 753 mmHg 50%
19:00 +28°C° 0.1 mm 3 m/s 753 mmHg 54%
20:00 +26°C° 0.2 mm 3 m/s 753 mmHg 60%
21:00 +25°C° 0.2 mm 3 m/s 754 mmHg 65%
22:00 +24°C° 0.2 mm 3 m/s 754 mmHg 70%
23:00 +22°C° 0.3 mm 3 m/s 754 mmHg 76%

Mâine, 8 August, Sâmbătă

Timp Temperatura Precipitaţii Vânt Presiune Umiditate
00:00 +21°C° 0.3 mm 2 m/s 754 mmHg 81%
01:00 +21°C° 0.3 mm 1 m/s 754 mmHg 87%
02:00 +21°C° 0.2 mm 1 m/s 754 mmHg 88%
03:00 +21°C° 0.2 mm 1 m/s 754 mmHg 89%
04:00 +21°C° 0.2 mm 1 m/s 754 mmHg 90%
05:00 +22°C° 0.2 mm 1 m/s 754 mmHg 85%
06:00 +23°C° 0.2 mm 1 m/s 755 mmHg 81%
07:00 +24°C° 0.2 mm 1 m/s 755 mmHg 77%
08:00 +27°C° 0 mm 2 m/s 755 mmHg 67%
09:00 +29°C° 0 mm 2 m/s 755 mmHg 56%
10:00 +33°C° 0 mm 3 m/s 755 mmHg 46%
11:00 +34°C° 0 mm 3 m/s 755 mmHg 41%
12:00 +35°C° 0 mm 4 m/s 754 mmHg 37%
13:00 +36°C° 0 mm 4 m/s 754 mmHg 32%
14:00 +34°C° 0.2 mm 5 m/s 753 mmHg 38%
15:00 +33°C° 0.2 mm 5 m/s 753 mmHg 45%
16:00 +30°C° 0.2 mm 5 m/s 753 mmHg 51%
17:00 +28°C° 0.3 mm 4 m/s 753 mmHg 58%
18:00 +26°C° 0.3 mm 3 m/s 753 mmHg 65%
19:00 +25°C° 0.3 mm 2 m/s 753 mmHg 72%
20:00 +24°C° 0.3 mm 2 m/s 753 mmHg 76%
21:00 +23°C° 0.3 mm 2 m/s 753 mmHg 79%
22:00 +21°C° 0.3 mm 2 m/s 754 mmHg 83%
23:00 +21°C° 0 mm 2 m/s 753 mmHg 84%

Poimâine, 9 August, Duminică

Timp Temperatura Precipitaţii Vânt Presiune Umiditate
00:00 +21°C° 0 mm 1 m/s 753 mmHg 86%
01:00 +21°C° 0 mm 1 m/s 753 mmHg 87%
02:00 +21°C° 0 mm 1 m/s 753 mmHg 89%
03:00 +20°C° 0 mm 1 m/s 753 mmHg 90%
04:00 +20°C° 0 mm 1 m/s 753 mmHg 92%
05:00 +20°C° 0 mm 2 m/s 753 mmHg 87%
06:00 +23°C° 0 mm 2 m/s 753 mmHg 83%
07:00 +24°C° 0 mm 2 m/s 754 mmHg 78%
08:00 +26°C° 0 mm 2 m/s 754 mmHg 70%
09:00 +28°C° 0 mm 2 m/s 754 mmHg 62%
10:00 +30°C° 0 mm 2 m/s 754 mmHg 54%
11:00 +31°C° 0 mm 2 m/s 753 mmHg 49%
12:00 +32°C° 0 mm 1 m/s 753 mmHg 45%
13:00 +34°C° 0 mm 1 m/s 753 mmHg 41%
14:00 +34°C° 0 mm 1 m/s 753 mmHg 40%
15:00 +33°C° 0 mm 1 m/s 752 mmHg 39%
16:00 +34°C° 0 mm 2 m/s 752 mmHg 38%
17:00 +32°C° 0 mm 2 m/s 752 mmHg 44%
18:00 +30°C° 0 mm 2 m/s 752 mmHg 49%
19:00 +28°C° 0 mm 1 m/s 752 mmHg 55%
20:00 +27°C° 0.1 mm 1 m/s 752 mmHg 60%
21:00 +26°C° 0.1 mm 1 m/s 752 mmHg 64%
22:00 +24°C° 0.1 mm 1 m/s 752 mmHg 69%
23:00 +24°C° 0 mm 1 m/s 752 mmHg 72%

10 August, Luni

Timp Temperatura Precipitaţii Vânt Presiune Umiditate
00:00 +23°C° 0 mm 1 m/s 752 mmHg 74%
01:00 +23°C° 0 mm 1 m/s 752 mmHg 76%
02:00 +22°C° 0 mm 1 m/s 752 mmHg 79%
03:00 +22°C° 0 mm 1 m/s 753 mmHg 82%
04:00 +21°C° 0 mm 1 m/s 753 mmHg 84%
05:00 +21°C° 0 mm 2 m/s 753 mmHg 80%
06:00 +24°C° 0 mm 2 m/s 753 mmHg 75%
07:00 +25°C° 0 mm 2 m/s 753 mmHg 70%
08:00 +27°C° 0 mm 2 m/s 753 mmHg 63%
09:00 +29°C° 0 mm 2 m/s 753 mmHg 56%
10:00 +31°C° 0 mm 2 m/s 753 mmHg 49%
11:00 +32°C° 0 mm 1 m/s 753 mmHg 46%
12:00 +33°C° 0 mm 1 m/s 752 mmHg 42%
13:00 +34°C° 0 mm 1 m/s 752 mmHg 39%
14:00 +34°C° 0 mm 1 m/s 752 mmHg 38%
15:00 +34°C° 0 mm 1 m/s 752 mmHg 38%
16:00 +34°C° 0 mm 1 m/s 752 mmHg 38%
17:00 +32°C° 0 mm 1 m/s 752 mmHg 43%
18:00 +30°C° 0 mm 1 m/s 752 mmHg 49%
19:00 +28°C° 0 mm 2 m/s 752 mmHg 54%
20:00 +27°C° 0 mm 1 m/s 752 mmHg 57%
21:00 +26°C° 0 mm 1 m/s 752 mmHg 60%
22:00 +25°C° 0 mm 1 m/s 753 mmHg 63%
23:00 +25°C° 0 mm 1 m/s 753 mmHg 65%

11 August, Marţi

Timp Temperatura Precipitaţii Vânt Presiune Umiditate
00:00 +24°C° 0 mm 1 m/s 753 mmHg 67%
01:00 +24°C° 0 mm 1 m/s 753 mmHg 70%
02:00 +23°C° 0 mm 1 m/s 753 mmHg 72%
03:00 +23°C° 0 mm 1 m/s 753 mmHg 74%
04:00 +22°C° 0 mm 1 m/s 753 mmHg 76%
05:00 +24°C° 0 mm 1 m/s 753 mmHg 72%
06:00 +25°C° 0 mm 2 m/s 753 mmHg 67%
07:00 +26°C° 0 mm 2 m/s 753 mmHg 63%
08:00 +28°C° 0 mm 2 m/s 753 mmHg 57%
09:00 +30°C° 0 mm 2 m/s 753 mmHg 51%
10:00 +32°C° 0 mm 2 m/s 753 mmHg 45%
11:00 +34°C° 0 mm 2 m/s 753 mmHg 41%
12:00 +35°C° 0 mm 2 m/s 753 mmHg 37%
13:00 +36°C° 0 mm 2 m/s 753 mmHg 33%
14:00 +36°C° 0 mm 2 m/s 752 mmHg 34%
15:00 +36°C° 0 mm 2 m/s 752 mmHg 34%
16:00 +35°C° 0 mm 2 m/s 752 mmHg 34%
17:00 +32°C° 0.1 mm 2 m/s 752 mmHg 40%
18:00 +31°C° 0.1 mm 2 m/s 752 mmHg 46%
19:00 +29°C° 0.1 mm 2 m/s 752 mmHg 52%
20:00 +27°C° 0.3 mm 2 m/s 752 mmHg 58%
21:00 +26°C° 0.3 mm 2 m/s 752 mmHg 64%
22:00 +24°C° 0.3 mm 1 m/s 753 mmHg 69%
23:00 +24°C° 0.1 mm 1 m/s 752 mmHg 71%

12 August, Miercuri

Timp Temperatura Precipitaţii Vânt Presiune Umiditate
00:00 +23°C° 0.1 mm 1 m/s 752 mmHg 72%
01:00 +23°C° 0.1 mm 1 m/s 752 mmHg 73%
02:00 +22°C° 0 mm 1 m/s 752 mmHg 75%
03:00 +22°C° 0 mm 1 m/s 752 mmHg 77%
04:00 +21°C° 0 mm 1 m/s 752 mmHg 79%
05:00 +23°C° 0 mm 1 m/s 752 mmHg 76%
06:00 +24°C° 0 mm 1 m/s 752 mmHg 73%
07:00 +25°C° 0 mm 1 m/s 753 mmHg 69%
08:00 +27°C° 0 mm 2 m/s 753 mmHg 60%
09:00 +29°C° 0 mm 2 m/s 753 mmHg 52%
10:00 +32°C° 0 mm 2 m/s 753 mmHg 43%
11:00 +34°C° 0 mm 3 m/s 752 mmHg 38%
12:00 +35°C° 0 mm 3 m/s 752 mmHg 34%
13:00 +36°C° 0 mm 4 m/s 752 mmHg 29%
14:00 +36°C° 0 mm 4 m/s 752 mmHg 30%
15:00 +36°C° 0 mm 4 m/s 752 mmHg 31%
16:00 +35°C° 0 mm 5 m/s 751 mmHg 32%
17:00 +33°C° 0 mm 4 m/s 752 mmHg 39%
18:00 +30°C° 0 mm 4 m/s 752 mmHg 45%
19:00 +28°C° 0 mm 3 m/s 752 mmHg 52%
20:00 +27°C° 0 mm 3 m/s 752 mmHg 55%
21:00 +26°C° 0 mm 3 m/s 752 mmHg 58%
22:00 +24°C° 0 mm 2 m/s 752 mmHg 61%
23:00 +24°C° 0 mm 2 m/s 752 mmHg 64%
Arată mai mult